Regional Weather Roundup
Issued by NWS

Home | Current Version | Previous Version | Text Only | Print | Product List | Glossary Off
Versions: 1 2 3 4 5 6 7 8 9 10 11 12 13 14 15 16 17 18 19 20 21 22 23 24 25 26 27 28 29 30 31 32 33 34 35 36 37 38 39 40 41 42 43 44 45 46 47 48 49 50

143
ASUS44 KMEG 201100
RWRTN
TENNESSEE HOURLY STATE WEATHER ROUNDUP
NATIONAL WEATHER SERVICE MEMPHIS TN
500 AM CST MON FEB 20 2017

TNZ002-004-019-021-049-052-054-088>092-201200-
WEST TENNESSEE

CITY           SKY/WX    TMP DP  RH WIND       PRES   REMARKS
MEMPHIS INTL   MOCLDY    61  50  67 SE7       30.05S
NWS MEMPHIS      N/A     54 N/A N/A MISG        N/A
JACKSON        PTCLDY    50  48  93 E5        30.09S
UNION CITY     CLEAR    N/A N/A N/A CALM      30.07F
PARIS          CLEAR     52  48  87 SE8       30.11F
$$

TNZ008-025-027-028-033-062-065-066-201200-
NORTH MIDDLE TENNESSEE

CITY           SKY/WX    TMP DP  RH WIND       PRES   REMARKS
NASHVILLE      MOCLDY    46  44  93 CALM      30.18R FOG
CLARKSVILLE    CLOUDY    48  46  93 E5        30.15R FOG
SMYRNA         MOCLDY    42  41  96 CALM      30.19R
CROSSVILLE     PTCLDY    39  38  96 CALM      30.19R FOG
$$

TNZ061-075-076-078-094-096-097-201200-
SOUTH MIDDLE TENNESSEE

CITY           SKY/WX    TMP DP  RH WIND       PRES   REMARKS
TULLAHOMA      CLEAR     41  39  93 CALM      30.17R
WINCHESTER     CLEAR     41  39  93 CALM      30.17R
MCMINNVILLE    CLEAR     43  43 100 CALM      30.18R
COLUMBIA       CLEAR    N/A N/A N/A CALM      30.13S
SHELBYVILLE    CLEAR     46  46 100 SE3       30.18R
$$

TNZ017-018-042-046-047-201200-
NORTHEAST TENNESSEE

CITY           SKY/WX    TMP DP  RH WIND       PRES   REMARKS
TRI CITIES     FOG       35  34  96 CALM      30.21R VSB 3/4
$$

TNZ012-013-036-069-073-074-201200-
CENTRAL EAST TENNESSEE

CITY           SKY/WX    TMP DP  RH WIND       PRES   REMARKS
KNOXVILLE      CLOUDY    39  37  92 NE3       30.17R
OAK RIDGE      CLOUDY    41  39  93 CALM      30.20R
GATLINBURG     CLEAR     34  34 100 CALM      30.18R
$$

TNZ083-085-099-201200-
SOUTHEAST TENNESSEE

CITY           SKY/WX    TMP DP  RH WIND       PRES   REMARKS
CHATTANOOGA    PTCLDY    44  42  93 CALM      30.17R
$$

SKY/WX REPORTED AS FAIR MEANS FEW OR NO CLOUDS BELOW
12 THOUSAND FEET.





USA.gov is the U.S. government's official web portal to all federal, state and local government web resources and services.